User: anonymous   Login
Location: Unspecified
(0.0000°N, 0.0000°E)
Time: 06:16:08
(UTC+02:00)
Language:

Timation 2 Rocket - Orbit

View from above orbital plane
View from above orbital plane
View from above satellite
View from above satellite

Ground track
Ground track

The orbit data is extracted from the following two-line orbital elements,

1 04159U 69082AB  15142.44995445  .00000013  00000-0  66408-4 0  9993
2 04159 069.9631 274.2389 0117266 310.7672 048.3289 13.72301284284255
Epoch (UTC): 22 May 2015 10:47:56
Eccentricity: 0.0117266
inclination: 69.9631°
perigee height: 905 km
apogee height: 1078 km
right ascension of ascending node: 274.2389°
argument of perigee: 310.7672°
revolutions per day: 13.72301284
mean anomaly at epoch: 48.3289°
orbit number at epoch: 28425

The dashed part of the orbit path shows where the satellite is in the earth's shadow,  

DLR